Weather reports worldwide

Advertisment
Jativa, Spain (8290): temperature & dewpoint: 29.06.2020 17:00:00 - 05.07.2020 17:00:00 (CEST)Jativa, Spain (8290): wind speed & gusts: 29.06.2020 17:00:00 - 05.07.2020 17:00:00 (CEST)Jativa, Spain (8290): wind direction: 29.06.2020 17:00:00 - 05.07.2020 17:00:00 (CEST)Jativa, Spain (8290): reduced air pressure: 29.06.2020 17:00:00 - 05.07.2020 17:00:00 (CEST)Jativa, Spain (8290): visibility: 29.06.2020 17:00:00 - 05.07.2020 17:00:00 (CEST)Jativa, Spain (8290): sunshine duration: 29.06.2020 17:00:00 - 05.07.2020 17:00:00 (CEST)Jativa, Spain (8290): precipitation: 29.06.2020 17:00:00 - 05.07.2020 17:00:00 (CEST)
Date & Time tt [°C] td [°C] ff [km/h] ff [kn] fx [km/h] fx [kn] dd ppp [hPa] vv [km] sd [min] rr [mm]
05.07.2020 17:00:00 - - - - - - - - - - -
05.07.2020 16:00:00 35,0 12,6 16 9 28 15 NNE 1016,9 20 60 0,0
05.07.2020 15:00:00 34,9 13,2 13 7 25 14 NNE 1017,3 20 60 0,0
05.07.2020 14:00:00 34,5 13,9 7 4 31 17 NNE 1018,1 20 60 -
05.07.2020 13:00:00 32,9 14,0 7 4 21 11 E 1018,8 20 60 0,0
05.07.2020 12:00:00 30,7 17,1 5 3 13 7 NNE 1019,5 20 60 0,0
05.07.2020 11:00:00 29,0 17,2 5 3 12 7 ENE 1019,9 20 60 0,0
05.07.2020 10:00:00 26,8 17,5 4 2 15 8 WNW 1020,3 20 60 0,0
05.07.2020 09:00:00 24,5 18,7 10 5 18 10 WSW 1020,4 20 60 0,0
05.07.2020 08:00:00 22,1 19,5 5 3 10 5 W 1020,4 20 41 -
05.07.2020 07:00:00 21,1 19,2 5 3 13 7 W 1020,5 20 0 0,0
05.07.2020 06:00:00 21,4 19,3 5 3 8 5 W 1020,3 20 0 0,0
05.07.2020 05:00:00 21,9 19,4 6 4 9 5 W 1020,3 20 0 0,0
05.07.2020 04:00:00 22,8 19,6 4 2 7 4 W 1020,8 20 0 0,0
05.07.2020 03:00:00 23,6 19,1 4 2 7 4 W 1021,1 20 0 0,0
05.07.2020 02:00:00 23,6 19,3 5 3 8 4 WSW 1021,4 20 0 -
05.07.2020 01:00:00 23,8 19,1 6 3 11 6 W 1021,4 20 0 0,0
05.07.2020 00:00:00 24,2 18,8 5 3 13 7 NW 1021,4 20 0 0,0
04.07.2020 23:00:00 24,6 19,0 4 2 17 9 NNW 1020,9 20 0 0,0
04.07.2020 22:00:00 25,2 19,3 10 5 26 14 NNW 1019,7 20 0 0,0
04.07.2020 21:00:00 27,6 18,6 16 8 31 17 N 1018,9 20 59 0,0
04.07.2020 20:00:00 29,5 17,7 21 12 34 18 N 1018,2 20 60 -
04.07.2020 19:00:00 31,3 17,9 17 9 29 16 NNE 1017,7 20 60 0,0
04.07.2020 18:00:00 32,7 18,5 16 9 26 14 NNE 1017,5 20 60 0,0
04.07.2020 17:00:00 33,3 18,2 12 7 24 13 NE 1017,4 19 60 0,0
04.07.2020 16:00:00 33,2 18,5 15 8 27 15 NE 1017,9 20 60 0,0
04.07.2020 15:00:00 33,6 18,5 10 5 23 12 N 1018,4 19 60 0,0
04.07.2020 14:00:00 32,6 17,2 8 4 18 10 NW 1019,3 20 60 -
04.07.2020 13:00:00 31,0 17,7 8 5 17 9 NNE 1020,0 18 60 0,0
04.07.2020 12:00:00 29,6 18,1 7 4 18 10 NNE 1020,4 20 60 0,0
04.07.2020 11:00:00 27,9 18,8 4 2 12 7 NNE 1020,6 19 39 0,0
04.07.2020 10:00:00 26,7 20,5 5 3 12 6 E 1020,6 16 29 0,0
04.07.2020 09:00:00 24,9 21,0 5 3 10 5 NE 1020,4 20 11 0,0
04.07.2020 08:00:00 24,0 21,3 3 2 5 3 NNE 1020,1 13 15 -
04.07.2020 07:00:00 23,3 21,2 2 1 6 3 N 1019,9 15 0 0,0
04.07.2020 06:00:00 23,7 21,2 3 1 8 4 NE 1019,7 16 0 0,0
04.07.2020 05:00:00 24,0 21,1 5 3 9 5 NNE 1019,8 16 0 0,0
04.07.2020 04:00:00 24,3 21,1 3 2 6 4 NE 1019,9 16 0 0,0
04.07.2020 03:00:00 24,2 20,9 4 2 10 5 NW 1020,1 17 0 0,0
04.07.2020 02:00:00 24,6 20,1 6 4 12 6 W 1019,8 18 0 -
04.07.2020 01:00:00 25,0 19,8 6 3 15 8 W 1019,8 20 0 0,0
04.07.2020 00:00:00 25,3 19,4 8 4 14 8 WNW 1019,7 19 0 0,0
03.07.2020 23:00:00 25,7 19,1 9 5 16 8 WNW 1019,1 20 0 0,0
03.07.2020 22:00:00 26,3 18,5 8 5 18 10 NNW 1018,1 20 0 0,0
03.07.2020 21:00:00 27,7 17,9 11 6 22 12 N 1017,3 20 42 0,0
03.07.2020 20:00:00 29,0 17,9 13 7 22 12 NNE 1016,7 20 43 -
03.07.2020 19:00:00 28,8 18,2 17 9 27 15 NNE 1016,6 20 27 0,0
03.07.2020 18:00:00 30,2 17,6 14 8 26 14 NE 1016,5 20 56 0,0
03.07.2020 17:00:00 30,3 17,7 9 5 27 14 NE 1016,9 20 57 0,0
03.07.2020 16:00:00 29,9 18,0 15 8 37 20 NE 1017,5 20 59 0,0
03.07.2020 15:00:00 30,0 18,5 16 9 38 21 ENE 1017,8 19 56 0,0
03.07.2020 14:00:00 30,0 18,5 21 11 34 19 ENE 1018,0 19 50 -
03.07.2020 13:00:00 30,2 18,3 13 7 26 14 ENE 1017,9 14 32 0,0
03.07.2020 12:00:00 28,2 18,6 10 6 23 12 NNE 1017,8 20 8 0,0
03.07.2020 11:00:00 26,9 18,8 10 6 22 12 N 1017,8 20 20 0,0
03.07.2020 10:00:00 26,5 19,8 10 6 17 9 NNE 1017,5 20 30 0,0
03.07.2020 09:00:00 25,2 21,5 4 2 8 5 N 1017,2 18 40 0,0
03.07.2020 08:00:00 23,0 21,3 4 2 6 4 NNW 1016,9 12 1 -
03.07.2020 07:00:00 22,0 20,7 1 1 8 5 SE 1016,5 11 0 0,0
03.07.2020 06:00:00 22,4 21,1 5 3 9 5 WSW 1016,0 12 0 0,0
03.07.2020 05:00:00 23,2 21,3 2 1 5 3 SSE 1015,9 11 0 0,0
03.07.2020 04:00:00 23,3 21,6 1 1 4 2 NNW 1016,0 12 0 0,0
03.07.2020 03:00:00 23,8 21,7 1 1 4 2 NNE 1015,9 14 0 0,0
03.07.2020 02:00:00 23,5 21,4 1 1 9 5 W 1015,6 13 0 -
03.07.2020 01:00:00 23,9 21,6 3 2 11 6 N 1015,4 13 0 0,0
03.07.2020 00:00:00 24,3 21,1 5 3 13 7 NNW 1014,8 15 0 0,0
02.07.2020 23:00:00 25,1 19,9 6 3 13 7 NW 1014,1 20 0 0,0
02.07.2020 22:00:00 26,4 18,8 7 4 16 9 NNW 1013,2 20 12 0,0
02.07.2020 21:00:00 28,0 18,7 11 6 27 15 NNE 1012,3 20 60 0,0
02.07.2020 20:00:00 29,9 18,3 16 9 35 19 NNE 1011,7 20 60 -
02.07.2020 19:00:00 32,3 18,2 23 12 35 19 N 1011,0 20 60 0,0
02.07.2020 18:00:00 33,7 17,4 17 9 34 19 N 1010,8 20 60 0,0
02.07.2020 17:00:00 34,2 18,7 23 12 36 19 N 1010,8 20 60 0,0
02.07.2020 16:00:00 34,9 19,7 16 9 31 17 N 1011,0 20 60 0,0
02.07.2020 15:00:00 33,8 19,1 11 6 24 13 NE 1011,8 20 60 0,0
02.07.2020 14:00:00 33,0 18,0 8 4 19 10 N 1012,7 20 60 -
02.07.2020 13:00:00 31,4 18,0 10 5 19 10 NE 1013,5 19 60 0,0
02.07.2020 12:00:00 30,5 18,2 6 4 15 8 ENE 1013,9 20 60 0,0
02.07.2020 11:00:00 29,0 19,6 7 4 11 6 N 1014,1 20 60 0,0
02.07.2020 10:00:00 27,4 21,2 4 2 11 6 NW 1014,3 17 58 0,0
02.07.2020 09:00:00 24,9 20,8 5 3 11 6 WSW 1014,0 17 10 0,0
02.07.2020 08:00:00 23,6 20,5 6 3 10 6 W 1013,6 16 0 -
02.07.2020 07:00:00 22,2 19,9 5 3 14 7 W 1013,3 16 0 0,0
02.07.2020 06:00:00 22,4 19,8 9 5 13 7 W 1012,8 16 0 0,0
02.07.2020 05:00:00 22,2 19,6 7 4 11 6 WSW 1012,4 19 0 0,0
02.07.2020 04:00:00 21,8 19,3 4 2 9 5 W 1011,9 15 0 0,0
02.07.2020 03:00:00 22,6 20,1 5 3 8 4 W 1011,5 16 0 0,0
02.07.2020 02:00:00 23,6 21,1 2 1 7 4 W 1011,7 16 0 -
02.07.2020 01:00:00 24,5 21,4 6 3 9 5 W 1011,8 17 0 0,0
02.07.2020 00:00:00 25,1 22,0 1 1 7 4 WNW 1011,5 16 0 0,0
01.07.2020 23:00:00 25,9 22,2 3 2 20 11 ENE 1011,0 15 0 0,0
01.07.2020 22:00:00 26,7 20,3 9 5 24 13 N 1010,1 20 13 0,0
01.07.2020 21:00:00 29,8 18,9 16 9 28 15 NNE 1009,0 20 60 0,0
01.07.2020 20:00:00 33,2 19,3 12 7 21 11 N 1008,2 20 60 -
01.07.2020 19:00:00 36,0 19,4 13 7 28 15 N 1007,9 20 60 0,0
01.07.2020 18:00:00 36,7 18,8 14 8 31 17 NNE 1008,1 20 60 0,0
01.07.2020 17:00:00 41,1 15,2 16 9 31 17 NNW 1007,9 20 60 0,0
01.07.2020 16:00:00 41,7 6,5 15 8 35 19 WNW 1007,9 20 60 0,0
01.07.2020 15:00:00 40,5 6,7 11 6 23 12 W 1008,5 20 60 0,0
01.07.2020 14:00:00 38,3 12,1 8 5 18 10 WNW 1009,4 20 60 -
01.07.2020 13:00:00 35,5 14,7 4 2 14 8 N 1010,1 20 60 0,0
01.07.2020 12:00:00 32,1 17,5 6 3 13 7 E 1010,7 20 60 0,0
01.07.2020 11:00:00 29,3 18,1 6 3 13 7 ESE 1011,1 20 60 0,0
01.07.2020 10:00:00 27,5 19,1 3 2 8 5 SE 1011,9 15 60 0,0
01.07.2020 09:00:00 25,1 20,1 3 2 12 7 NW 1012,1 20 59 0,0
01.07.2020 08:00:00 23,0 19,8 5 3 9 5 W 1012,0 20 18 -
01.07.2020 07:00:00 22,8 20,1 6 3 9 5 W 1011,4 19 0 0,0
01.07.2020 06:00:00 23,7 20,9 5 3 6 3 N 1011,1 20 0 0,0
01.07.2020 05:00:00 24,1 21,8 2 1 8 4 NE 1011,2 20 0 0,0
01.07.2020 04:00:00 24,2 21,9 5 3 9 5 N 1011,2 19 0 0,0
01.07.2020 03:00:00 24,2 21,5 4 2 10 5 W 1011,7 20 0 0,0
01.07.2020 02:00:00 24,2 21,9 4 2 12 7 W 1012,0 20 0 -
01.07.2020 01:00:00 24,0 22,1 6 4 11 6 W 1012,3 20 0 0,0
01.07.2020 00:00:00 24,3 22,0 5 3 13 7 WNW 1012,3 20 0 0,0
30.06.2020 23:00:00 24,7 21,0 1 1 16 9 NW 1012,3 20 0 0,0
30.06.2020 22:00:00 25,4 20,4 6 4 20 11 NNW 1011,5 20 0 0,0
30.06.2020 21:00:00 27,6 19,4 12 7 23 12 NNW 1010,8 20 52 0,0
30.06.2020 20:00:00 30,0 19,3 16 8 27 15 NNW 1010,4 20 60 -
30.06.2020 19:00:00 31,9 18,5 15 8 27 14 N 1010,3 20 60 0,0
30.06.2020 18:00:00 32,3 18,5 14 8 24 13 NNE 1010,8 20 60 0,0
30.06.2020 17:00:00 33,0 19,1 13 7 28 15 N 1011,3 20 60 0,0
30.06.2020 16:00:00 32,8 19,3 18 10 32 17 N 1011,9 20 60 0,0
30.06.2020 15:00:00 32,3 19,6 14 8 29 15 N 1012,6 20 60 0,0
30.06.2020 14:00:00 31,7 18,7 13 7 23 12 N 1013,3 20 60 -
30.06.2020 13:00:00 30,1 18,2 7 4 18 10 N 1014,1 20 60 0,0
30.06.2020 12:00:00 29,2 18,0 7 4 18 10 NE 1014,4 16 60 0,0
30.06.2020 11:00:00 26,9 19,0 5 3 16 9 NNE 1014,9 20 58 0,0
30.06.2020 10:00:00 25,7 20,5 5 3 11 6 N 1015,1 19 12 0,0
30.06.2020 09:00:00 24,3 21,1 4 2 8 5 NE 1014,9 20 5 0,0
30.06.2020 08:00:00 23,4 20,9 3 1 6 3 ENE 1014,8 18 0 -
30.06.2020 07:00:00 23,0 21,3 2 1 6 3 NNE 1014,5 16 0 0,0
30.06.2020 06:00:00 22,9 21,2 3 2 7 4 W 1014,1 17 0 0,0
30.06.2020 05:00:00 22,6 20,9 3 2 8 4 W 1014,2 17 0 0,0
30.06.2020 04:00:00 23,0 21,1 4 2 8 4 WSW 1014,6 18 0 0,0
30.06.2020 03:00:00 23,2 21,3 4 2 8 5 WSW 1015,1 19 0 0,0
30.06.2020 02:00:00 23,2 21,3 5 3 10 5 W 1015,5 19 0 -
30.06.2020 01:00:00 23,3 21,2 5 3 13 7 W 1015,8 18 0 0,0
30.06.2020 00:00:00 23,5 21,4 8 4 14 7 NW 1015,7 18 0 0,0
29.06.2020 23:00:00 23,8 21,1 6 3 19 10 NNW 1015,2 18 0 0,0
29.06.2020 22:00:00 24,2 20,9 14 8 28 15 N 1014,5 19 7 0,0
29.06.2020 21:00:00 25,9 20,3 16 9 31 17 NNE 1013,8 20 60 0,0
29.06.2020 20:00:00 29,0 19,6 14 8 32 17 NNW 1013,1 20 60 -
29.06.2020 19:00:00 31,0 19,7 17 9 35 19 N 1012,8 14 60 0,0
29.06.2020 18:00:00 32,4 18,6 21 12 39 21 N 1012,8 20 60 0,0
29.06.2020 17:00:00 34,9 17,6 19 11 31 17 N 1012,8 20 60 0,0

tt = temperature
td = dewpoint
ff = wind speed
fx = gusts
dd = wind direction
ppp = reduced air pressure
vv = visibility
sd = sunshine duration
rr = precipitation

Next stations